Powrót do katalogu

OPS 4682 DEB

AktywnyPO
NORAD 55116·DEBRIS·🇺🇸 United States

Wystrzelony Apr 3, 1965 z Vandenberg Space Force Base

Loading…

Następne Przeloty (najbliższe 24 godziny)

TLE

ŚwieżeSource: Space-Track

Epoka: Sep 14, 2026, 06:22 UTC

1 55116U 65027HF  26257.26576513 -.00000661  00000-0 -22482-2 0  9990
2 55116  90.2501   9.1988 0033325 110.5780 249.8922 12.99015567525643

Śledź OPS 4682 DEB w czasie rzeczywistym z AllMySat

Download on the App Store